#timestamp,LO_Frequency,Hit,StdDev 
1512626415.3,286046998.0,N
1512626435.1,286046988.8,Y
1512626455.9,286046991.9,P
1512626475.7,286046994.8,N
1512626495.5,286046996.7,N
1512626515.4,286046995.2,N
1512626535.2,286046995.4,N
1512626555.0,286046997.7,N
1512626556.0,286047011.9,Y
1512626575.8,286046998.2,P
1512626595.6,286046998.7,N
1512626615.5,286046996.6,N
1512626635.3,286047002.1,N
1512626655.1,286046999.9,N
1512626675.9,286047005.7,N
1512626695.7,286047000.6,N
1512626715.6,286047002.3,N
1512626735.4,286047005.4,N
1512626755.2,286047002.5,N
1512626775.1,286047003.8,N
1512626776.0,286047003.8,N
1512626795.8,286047002.5,N
1512626815.6,286047000.2,N
1512626835.5,286046999.7,N
1512626855.3,286047001.0,N
1512626875.2,286046999.0,N
1512626895.9,286046996.4,N
1512626915.7,286047000.8,N
1512626935.6,286047004.4,N
1512626955.4,286047001.0,N
1512626975.2,286047001.1,N
1512626995.1,286046996.7,N
1512626996.0,286046996.7,N
1512627015.8,286046997.0,N
1512627035.7,286046990.5,Y
1512627055.5,286046987.4,P
1512627075.3,286046982.5,N
1512627095.2,286046986.3,N
1512627115.0,286046986.3,N
1512627115.9,286046986.3,N
1512627135.7,286046983.4,N
1512627155.6,286046979.3,Y
1512627175.4,286046991.1,P
1512627195.3,286046988.2,P
1512627215.1,286046981.0,P
1512627216.0,286046981.0,Y
1512627235.8,286046993.0,P
1512627255.7,286046987.5,P
1512627275.5,286046982.2,P
1512627295.4,286046978.9,Y
1512627315.2,286046992.3,P
1512627335.0,286046993.9,N
1512627335.9,286046993.9,N
1512627355.8,286046990.6,Y
1512627375.6,286046999.2,P
1512627395.5,286047003.8,N
1512627415.3,286047006.8,N
1512627435.1,286047003.1,N
1512627455.9,286047011.8,N
1512627475.7,286047017.2,N
1512627495.6,286047015.6,N
1512627515.4,286047016.4,N
1512627535.2,286047016.3,N
1512627555.1,286047013.2,N
1512627556.0,286047013.2,N
1512627575.8,286047019.2,N
1512627595.6,286047016.4,N
1512627615.5,286047015.8,N
1512627635.3,286047016.9,N
1512627655.2,286047020.1,N
1512627675.9,286047021.2,N
1512627695.7,286047019.8,N
1512627715.6,286047014.7,N
1512627735.4,286047015.0,N
1512627755.3,286047021.7,N
1512627775.1,286047022.2,N
1512627776.0,286047022.2,N
1512627795.8,286047029.7,Y
1512627815.7,286047016.4,P
1512627835.5,286047016.3,P
1512627855.3,286047018.2,P
1512627875.2,286047014.4,Y
1512627895.0,286046999.4,P
1512627895.9,286046999.4,N
1512627915.8,286046996.0,N
1512627965.6,286047001.3,E
1512627975.6,286047000.1,N
1512627995.4,286047003.0,P
1512628015.2,286047006.8,P
1512628035.1,286047010.5,Y
1512628036.0,286047010.5,P
1512628055.8,286047006.5,N
1512628075.6,286047006.6,N
1512628095.5,286047006.1,N
1512628115.3,286047004.8,N
1512628135.2,286047007.6,Y
1512628155.0,286046994.9,P
1512628155.9,286046994.9,N
1512628175.7,286046994.3,N
1512628195.6,286046995.7,N
1512628215.4,286046991.8,N
1512628235.3,286046992.7,N
1512628255.1,286046987.3,N
1512628256.0,286046987.3,N
1512628275.8,286046991.1,N
1512628295.7,286046991.6,N
1512628315.5,286046998.0,N
1512628335.4,286046993.7,N
1512628355.2,286046995.1,N
1512628375.0,286046994.8,N
1512628375.9,286046994.8,N
1512628395.8,286046994.0,N
1512628415.6,286046991.8,N
1512628435.4,286046992.8,N
1512628455.3,286046992.5,N
1512628475.1,286046995.5,N
1512628495.9,286046994.7,N
1512628515.7,286046993.6,N
1512628535.5,286046994.7,N
1512628555.4,286046996.7,N
1512628575.2,286046999.8,N
1512628595.0,286046996.5,N
1512628595.9,286046996.5,N
1512628615.8,286046999.0,N
1512628635.6,286047001.4,N
1512628655.5,286047000.1,N
1512628675.3,286047004.0,N
1512628695.1,286046998.1,N
1512628715.9,286046998.2,N
1512628735.7,286046995.4,N
1512628755.6,286046997.1,N
1512628775.4,286046996.2,N
1512628795.2,286046997.8,N
1512628815.1,286046993.9,N
1512628816.0,286046993.9,N
1512628835.8,286046999.3,N
1512628855.6,286047002.0,N
1512628875.5,286047003.2,N
1512628895.3,286047004.6,N
1512628915.2,286047003.1,N
1512628935.9,286047000.4,N
1512628955.7,286046995.0,N
1512628975.6,286046996.0,N
1512628995.4,286046994.7,N
1512629015.2,286046997.8,N
1512629035.1,286046999.6,N
1512629036.0,286046999.6,N
1512629055.8,286047000.6,N
1512629075.7,286046999.4,N
1512629095.5,286046995.1,N
1512629115.3,286047000.0,N
1512629135.2,286047005.0,N
1512629155.0,286047002.3,N
1512629155.9,286047002.3,N
1512629175.8,286046997.8,N
1512629195.6,286046997.3,N
1512629215.4,286046997.8,N
1512629235.3,286046996.2,N
1512629255.1,286046992.8,N
1512629275.8,286046995.8,N
1512629295.7,286046997.4,N
1512629315.5,286046999.9,N
1512629335.4,286047002.3,N
1512629355.2,286047003.7,N
1512629375.0,286047002.4,N
1512629375.9,286047002.4,N
1512629395.8,286046996.6,N
1512629415.6,286046999.0,N
1512629435.5,286046999.4,N
1512629455.3,286047000.4,N
1512629475.1,286046997.7,N
1512629495.9,286046998.1,N
1512629515.7,286047004.0,N
1512629535.5,286047000.5,N
1512629555.4,286047001.2,N
1512629575.2,286047000.9,N
1512629595.1,286047001.3,N
1512629596.0,286047001.3,N
1512629615.8,286047007.0,N
1512629635.6,286047005.8,N
1512629655.5,286047002.7,N
1512629675.3,286047002.2,N
1512629695.1,286047002.0,N
1512629715.9,286047002.7,N
1512629735.7,286046999.0,N
1512629755.6,286046999.0,N
1512629775.4,286047000.8,N
1512629795.2,286047004.2,N
1512629815.1,286047000.3,N
1512629816.0,286047000.3,N
1512629835.8,286047001.0,N
1512629855.7,286046996.5,N
1512629875.5,286047001.8,N
1512629895.3,286047005.4,N
1512629915.2,286047005.2,N
1512629935.0,286047002.0,N
1512629935.9,286047002.0,N
1512629955.8,286047003.3,N
1512629975.6,286047002.5,N
1512629995.4,286047004.2,N
